Year,Month,Day,Hour,Minute,Value (Times are PST for temperature in C)
2024,01,11,00,00,0.80
2024,01,11,00,01,0.80
2024,01,11,00,02,0.80
2024,01,11,00,03,0.80
2024,01,11,00,04,0.90
2024,01,11,00,05,0.90
2024,01,11,00,06,0.90
2024,01,11,00,07,0.90
2024,01,11,00,08,0.90
2024,01,11,00,09,0.90
2024,01,11,00,10,0.90
2024,01,11,00,11,0.90
2024,01,11,00,12,0.90
2024,01,11,00,13,0.90
2024,01,11,00,14,1.00
2024,01,11,00,15,1.00
2024,01,11,00,16,1.00
2024,01,11,00,17,1.00
2024,01,11,00,18,1.00
2024,01,11,00,19,1.00
2024,01,11,00,20,1.00
2024,01,11,00,21,1.00
2024,01,11,00,22,1.00
2024,01,11,00,23,1.00
2024,01,11,00,24,1.00
2024,01,11,00,25,1.10
2024,01,11,00,26,1.10
2024,01,11,00,27,1.10
2024,01,11,00,28,1.10
2024,01,11,00,29,1.10
2024,01,11,00,30,1.10
2024,01,11,00,31,1.10
2024,01,11,00,32,1.10
2024,01,11,00,33,1.10
2024,01,11,00,34,1.20
2024,01,11,00,35,1.20
2024,01,11,00,36,1.20
2024,01,11,00,37,1.10
2024,01,11,00,38,1.10
2024,01,11,00,39,1.10
2024,01,11,00,40,1.10
2024,01,11,00,41,1.10
2024,01,11,00,42,1.10
2024,01,11,00,43,1.10
2024,01,11,00,44,1.10
2024,01,11,00,45,1.10
2024,01,11,00,46,1.10
2024,01,11,00,47,1.20
2024,01,11,00,48,1.20
2024,01,11,00,49,1.20
2024,01,11,00,50,1.20
2024,01,11,00,51,1.20
2024,01,11,00,52,1.20
2024,01,11,00,53,1.20
2024,01,11,00,54,1.30
2024,01,11,00,55,1.30
2024,01,11,00,56,1.30
2024,01,11,00,57,1.30
2024,01,11,00,58,1.30
2024,01,11,00,59,1.30
2024,01,11,01,00,1.40
2024,01,11,01,01,1.40
2024,01,11,01,02,1.40
2024,01,11,01,03,1.40
2024,01,11,01,04,1.40
2024,01,11,01,05,1.40
2024,01,11,01,06,1.40
2024,01,11,01,07,1.50
2024,01,11,01,08,1.50
2024,01,11,01,09,1.40
2024,01,11,01,10,1.40
2024,01,11,01,11,1.40
2024,01,11,01,12,1.40
2024,01,11,01,13,1.40
2024,01,11,01,14,1.40
2024,01,11,01,15,1.40
2024,01,11,01,16,1.50
2024,01,11,01,17,1.50
2024,01,11,01,18,1.50
2024,01,11,01,19,1.50
2024,01,11,01,20,1.40
2024,01,11,01,21,1.40
2024,01,11,01,22,1.40
2024,01,11,01,23,1.30
2024,01,11,01,24,1.30
2024,01,11,01,25,1.30
2024,01,11,01,26,1.30
2024,01,11,01,27,1.30
2024,01,11,01,28,1.30
2024,01,11,01,29,1.30
2024,01,11,01,30,1.30
2024,01,11,01,31,1.30
2024,01,11,01,32,1.30
2024,01,11,01,33,1.30
2024,01,11,01,34,1.30
2024,01,11,01,35,1.30
2024,01,11,01,36,1.30
2024,01,11,01,37,1.30
2024,01,11,01,38,1.20
2024,01,11,01,39,1.10
2024,01,11,01,40,1.10
2024,01,11,01,41,1.10
2024,01,11,01,42,1.00
2024,01,11,01,43,1.00
2024,01,11,01,44,1.00
2024,01,11,01,45,0.90
2024,01,11,01,46,0.90
2024,01,11,01,47,0.90
2024,01,11,01,48,0.90
2024,01,11,01,49,0.90
2024,01,11,01,50,0.80
2024,01,11,01,51,0.80
2024,01,11,01,52,0.80
2024,01,11,01,53,0.80
2024,01,11,01,54,0.80
2024,01,11,01,55,0.80
2024,01,11,01,56,0.80
2024,01,11,01,57,0.80
2024,01,11,01,58,0.90
2024,01,11,01,59,0.90
2024,01,11,02,00,0.80
2024,01,11,02,01,0.80
2024,01,11,02,02,0.80
2024,01,11,02,03,0.70
2024,01,11,02,04,0.70
2024,01,11,02,05,0.70
2024,01,11,02,06,0.60
2024,01,11,02,07,0.60
2024,01,11,02,08,0.60
2024,01,11,02,09,0.60
2024,01,11,02,10,0.60
2024,01,11,02,11,0.70
2024,01,11,02,12,0.70
2024,01,11,02,13,0.70
2024,01,11,02,14,0.70
2024,01,11,02,15,0.70
2024,01,11,02,16,0.70
2024,01,11,02,17,0.60
2024,01,11,02,18,0.60
2024,01,11,02,19,0.60
2024,01,11,02,20,0.50
2024,01,11,02,21,0.50
2024,01,11,02,22,0.50
2024,01,11,02,23,0.50
2024,01,11,02,24,0.50
2024,01,11,02,25,0.60
2024,01,11,02,26,0.60
2024,01,11,02,27,0.60
2024,01,11,02,28,0.60
2024,01,11,02,29,0.50
2024,01,11,02,30,0.50
2024,01,11,02,31,0.40
2024,01,11,02,32,0.40
2024,01,11,02,33,0.30
2024,01,11,02,34,0.30
2024,01,11,02,35,0.30
2024,01,11,02,36,0.30
2024,01,11,02,37,0.40
2024,01,11,02,38,0.40
2024,01,11,02,39,0.40
2024,01,11,02,40,0.40
2024,01,11,02,41,0.40
2024,01,11,02,42,0.40
2024,01,11,02,43,0.40
2024,01,11,02,44,0.30
2024,01,11,02,45,0.30
2024,01,11,02,46,0.20
2024,01,11,02,47,0.20
2024,01,11,02,48,0.10
2024,01,11,02,49,0.10
2024,01,11,02,50,0.10
2024,01,11,02,51,0.10
2024,01,11,02,52,0.10
2024,01,11,02,53,0.10
2024,01,11,02,54,0.20
2024,01,11,02,55,0.30
2024,01,11,02,56,0.30
2024,01,11,02,57,0.20
2024,01,11,02,58,0.20
2024,01,11,02,59,0.20
2024,01,11,03,00,0.20
2024,01,11,03,01,0.20
2024,01,11,03,02,0.20
2024,01,11,03,03,0.20
2024,01,11,03,04,0.10
2024,01,11,03,05,0.10
2024,01,11,03,06,0.10
2024,01,11,03,07,0.10
2024,01,11,03,08,0.10
2024,01,11,03,09,0.00
2024,01,11,03,10,0.10
2024,01,11,03,11,0.10
2024,01,11,03,12,0.10
2024,01,11,03,13,0.00
2024,01,11,03,14,0.00
2024,01,11,03,15,0.00
2024,01,11,03,16,-0.10
2024,01,11,03,17,-0.10
2024,01,11,03,18,-0.10
2024,01,11,03,19,-0.10
2024,01,11,03,20,-0.10
2024,01,11,03,21,-0.10
2024,01,11,03,22,-0.20
2024,01,11,03,23,-0.20
2024,01,11,03,24,-0.20
2024,01,11,03,25,-0.10
2024,01,11,03,26,-0.10
2024,01,11,03,27,-0.10
2024,01,11,03,28,-0.10
2024,01,11,03,29,-0.20
2024,01,11,03,30,-0.20
2024,01,11,03,31,-0.20
2024,01,11,03,32,-0.20
2024,01,11,03,33,-0.30
2024,01,11,03,34,-0.30
2024,01,11,03,35,-0.30
2024,01,11,03,36,-0.30
2024,01,11,03,37,-0.30
2024,01,11,03,38,-0.40
2024,01,11,03,39,-0.40
2024,01,11,03,40,-0.40
2024,01,11,03,41,-0.40
2024,01,11,03,42,-0.40
2024,01,11,03,43,-0.40
2024,01,11,03,44,-0.40
2024,01,11,03,45,-0.40
2024,01,11,03,46,-0.40
2024,01,11,03,47,-0.40
2024,01,11,03,48,-0.40
2024,01,11,03,49,-0.40
2024,01,11,03,50,-0.50
2024,01,11,03,51,-0.50
2024,01,11,03,52,-0.50
2024,01,11,03,53,-0.50
2024,01,11,03,54,-0.40
2024,01,11,03,55,-0.30
2024,01,11,03,56,-0.20
2024,01,11,03,57,-0.10
2024,01,11,03,58,0.00
2024,01,11,03,59,0.10
2024,01,11,04,00,0.10
2024,01,11,04,01,0.20
2024,01,11,04,02,0.20
2024,01,11,04,03,0.20
2024,01,11,04,04,0.20
2024,01,11,04,05,0.20
2024,01,11,04,06,0.20
2024,01,11,04,07,0.20
2024,01,11,04,08,0.20
2024,01,11,04,09,0.30
2024,01,11,04,10,0.30
2024,01,11,04,11,0.40
2024,01,11,04,12,0.40
2024,01,11,04,13,0.30
2024,01,11,04,14,0.30
2024,01,11,04,15,0.30
2024,01,11,04,16,0.30
2024,01,11,04,17,0.30
2024,01,11,04,18,0.30
2024,01,11,04,19,0.30
2024,01,11,04,20,0.30
2024,01,11,04,21,0.40
2024,01,11,04,22,0.40
2024,01,11,04,23,0.50
2024,01,11,04,24,0.50
2024,01,11,04,25,0.50
2024,01,11,04,26,0.50
2024,01,11,04,27,0.50
2024,01,11,04,28,0.50
2024,01,11,04,29,0.50
2024,01,11,04,30,0.50
2024,01,11,04,31,0.60
2024,01,11,04,32,0.60
2024,01,11,04,33,0.60
2024,01,11,04,34,0.60
2024,01,11,04,35,0.60
2024,01,11,04,36,0.50
2024,01,11,04,37,0.50
2024,01,11,04,38,0.50
2024,01,11,04,39,0.50
2024,01,11,04,40,0.50
2024,01,11,04,41,0.40
2024,01,11,04,42,0.40
2024,01,11,04,43,0.50
2024,01,11,04,44,0.60
2024,01,11,04,45,0.60
2024,01,11,04,46,0.70
2024,01,11,04,47,0.70
2024,01,11,04,48,0.80
2024,01,11,04,49,0.90
2024,01,11,04,50,0.90
2024,01,11,04,51,1.00
2024,01,11,04,52,1.10
2024,01,11,04,53,1.10
2024,01,11,04,54,1.10
2024,01,11,04,55,1.20
2024,01,11,04,56,1.20
2024,01,11,04,57,1.30
2024,01,11,04,58,1.40
2024,01,11,04,59,1.50
2024,01,11,05,00,1.50
2024,01,11,05,01,1.60
2024,01,11,05,02,1.70
2024,01,11,05,03,1.70
2024,01,11,05,04,1.80
2024,01,11,05,05,1.80
2024,01,11,05,06,1.80
2024,01,11,05,07,1.90
2024,01,11,05,08,1.90
2024,01,11,05,09,1.90
2024,01,11,05,10,1.90
2024,01,11,05,11,1.90
2024,01,11,05,12,2.00
2024,01,11,05,13,2.00
2024,01,11,05,14,1.90
2024,01,11,05,15,1.90
2024,01,11,05,16,1.90
2024,01,11,05,17,1.90
2024,01,11,05,18,1.90
2024,01,11,05,19,1.90
2024,01,11,05,20,1.90
2024,01,11,05,21,1.90
2024,01,11,05,22,1.90
2024,01,11,05,23,1.90
2024,01,11,09,20,-0.50
2024,01,11,09,21,-0.50
2024,01,11,09,22,-0.50
2024,01,11,09,23,-0.50
2024,01,11,09,24,-0.50
2024,01,11,09,25,-0.50
2024,01,11,09,26,-0.50
2024,01,11,09,27,-0.50
2024,01,11,09,28,-0.40
2024,01,11,09,29,-0.40
2024,01,11,09,30,-0.40
2024,01,11,09,31,-0.40
2024,01,11,09,32,-0.40
2024,01,11,09,33,-0.40
2024,01,11,09,34,-0.40
2024,01,11,09,35,-0.40
2024,01,11,09,36,-0.40
2024,01,11,09,37,-0.40
2024,01,11,09,38,-0.40
2024,01,11,09,39,-0.40
2024,01,11,09,40,-0.40
2024,01,11,09,41,-0.40
2024,01,11,09,42,-0.30
2024,01,11,09,43,-0.30
2024,01,11,09,44,-0.30
2024,01,11,09,45,-0.30
2024,01,11,09,46,-0.30
2024,01,11,09,47,-0.30
2024,01,11,09,48,-0.30
2024,01,11,09,49,-0.30
2024,01,11,09,50,-0.30
2024,01,11,09,51,-0.30
2024,01,11,09,52,-0.30
2024,01,11,09,53,-0.30
2024,01,11,09,54,-0.30
2024,01,11,09,55,-0.30
2024,01,11,09,56,-0.30
2024,01,11,09,57,-0.30
2024,01,11,09,58,-0.30
2024,01,11,09,59,-0.30
2024,01,11,10,00,-0.30
2024,01,11,10,01,-0.30
2024,01,11,10,02,-0.30
2024,01,11,10,03,-0.20
2024,01,11,10,04,-0.20
2024,01,11,10,05,-0.20
2024,01,11,10,06,-0.30
2024,01,11,10,07,-0.30
2024,01,11,10,08,-0.20
2024,01,11,10,09,-0.20
2024,01,11,10,10,-0.20
2024,01,11,10,11,-0.20
2024,01,11,10,12,-0.20
2024,01,11,10,13,-0.10
2024,01,11,10,14,-0.10
2024,01,11,10,15,-0.10
2024,01,11,10,16,-0.10
2024,01,11,10,17,-0.10
2024,01,11,10,18,0.00
2024,01,11,10,19,0.00
2024,01,11,10,20,0.00
2024,01,11,10,21,0.10
2024,01,11,10,22,0.10
2024,01,11,10,23,0.10
2024,01,11,10,24,0.10
2024,01,11,10,25,0.10
2024,01,11,10,26,0.10
2024,01,11,10,27,0.10
2024,01,11,10,28,0.20
2024,01,11,10,29,0.20
2024,01,11,10,30,0.20
2024,01,11,10,31,0.20
2024,01,11,10,32,0.20
2024,01,11,10,33,0.30
2024,01,11,10,34,0.30
2024,01,11,10,35,0.30
2024,01,11,10,36,0.30
2024,01,11,10,37,0.40
2024,01,11,10,38,0.40
2024,01,11,10,39,0.40
2024,01,11,10,40,0.40
2024,01,11,10,41,0.40
2024,01,11,10,42,0.40
2024,01,11,10,43,0.50
2024,01,11,10,44,0.50
2024,01,11,10,45,0.60
2024,01,11,10,46,0.60
2024,01,11,10,47,0.60
2024,01,11,10,48,0.70
2024,01,11,10,49,0.70
2024,01,11,10,50,0.80
2024,01,11,10,51,0.90
2024,01,11,10,52,1.00
2024,01,11,10,53,1.10
2024,01,11,10,54,1.20
2024,01,11,10,55,1.40
2024,01,11,10,56,1.60
2024,01,11,10,57,1.80
2024,01,11,10,58,2.00
2024,01,11,10,59,2.20
2024,01,11,11,00,2.30
2024,01,11,11,01,2.50
2024,01,11,11,02,2.60
2024,01,11,11,03,2.70
2024,01,11,11,04,2.90
2024,01,11,11,05,3.00
2024,01,11,11,06,3.10
2024,01,11,11,07,3.10
2024,01,11,11,08,3.20
2024,01,11,11,09,3.30
2024,01,11,11,10,3.30
2024,01,11,11,11,3.40
2024,01,11,11,12,3.40
2024,01,11,11,13,3.40
2024,01,11,11,14,3.40
2024,01,11,11,15,3.50
2024,01,11,11,16,3.50
2024,01,11,11,17,3.60
2024,01,11,11,18,3.60
2024,01,11,11,19,3.60
2024,01,11,11,20,3.70
2024,01,11,11,21,3.70
2024,01,11,11,22,3.70
2024,01,11,11,23,3.70
2024,01,11,11,24,3.80
2024,01,11,11,25,3.80
2024,01,11,11,26,3.80
2024,01,11,11,27,3.80
2024,01,11,11,28,3.90
2024,01,11,11,29,3.90
2024,01,11,11,30,3.90
2024,01,11,11,31,3.90
2024,01,11,11,32,3.90
2024,01,11,11,33,3.90
2024,01,11,11,34,3.90
2024,01,11,11,35,3.90
2024,01,11,11,36,3.90
2024,01,11,11,37,3.90
2024,01,11,11,38,3.90
2024,01,11,11,39,3.90
2024,01,11,11,40,3.90
2024,01,11,11,41,3.90
2024,01,11,11,42,3.90
2024,01,11,11,43,3.90
2024,01,11,11,44,3.90
2024,01,11,11,45,3.90
2024,01,11,11,46,4.00
2024,01,11,11,47,4.00
2024,01,11,11,48,4.00
2024,01,11,11,49,4.00
2024,01,11,11,50,4.00
2024,01,11,11,51,4.10
2024,01,11,11,52,4.10
2024,01,11,11,53,4.10
2024,01,11,11,54,4.10
2024,01,11,11,55,4.10
2024,01,11,11,56,4.10
2024,01,11,11,57,4.10
2024,01,11,11,58,4.10
2024,01,11,11,59,4.20
2024,01,11,12,00,4.20
2024,01,11,12,01,4.20
2024,01,11,12,02,4.20
2024,01,11,12,03,4.20
2024,01,11,12,04,4.20
2024,01,11,12,05,4.20
2024,01,11,12,06,4.20
2024,01,11,12,07,4.20
2024,01,11,12,08,4.20
2024,01,11,12,09,4.20
2024,01,11,12,10,4.20
2024,01,11,12,11,4.20
2024,01,11,12,12,4.20
2024,01,11,12,13,4.20
2024,01,11,12,14,4.20
2024,01,11,12,15,4.20
2024,01,11,12,16,4.20
2024,01,11,12,17,4.20
2024,01,11,12,18,4.20
2024,01,11,12,19,4.20
2024,01,11,12,20,4.20
2024,01,11,12,21,4.20
2024,01,11,12,22,4.20
2024,01,11,12,23,4.20
2024,01,11,12,24,4.20
2024,01,11,12,25,4.20
2024,01,11,12,26,4.20
2024,01,11,12,27,4.20
2024,01,11,12,28,4.20
2024,01,11,12,29,4.20
2024,01,11,12,30,4.20
2024,01,11,12,31,4.20
2024,01,11,12,32,4.20
2024,01,11,12,33,4.20
2024,01,11,12,34,4.20
2024,01,11,12,35,4.10
2024,01,11,12,36,4.10
2024,01,11,12,37,4.10
2024,01,11,12,38,4.10
2024,01,11,12,39,4.10
2024,01,11,12,40,4.10
2024,01,11,12,41,4.10
2024,01,11,12,42,4.10
2024,01,11,12,43,4.10
2024,01,11,12,44,4.10
2024,01,11,12,45,4.10
2024,01,11,12,46,4.10
2024,01,11,12,47,4.10
2024,01,11,12,48,4.10
2024,01,11,12,49,4.00
2024,01,11,12,50,4.00
2024,01,11,12,51,4.00
2024,01,11,12,52,4.00
2024,01,11,12,53,3.90
2024,01,11,12,54,3.90
2024,01,11,12,55,3.90
2024,01,11,12,56,3.50
2024,01,11,12,57,2.80
2024,01,11,12,58,2.30
2024,01,11,12,59,1.80
2024,01,11,13,00,1.30
2024,01,11,13,01,1.00
2024,01,11,13,02,0.80
2024,01,11,13,03,0.70
2024,01,11,13,04,0.60
2024,01,11,13,05,0.50
2024,01,11,13,06,0.30
2024,01,11,13,07,0.10
2024,01,11,13,08,0.00
2024,01,11,13,09,0.00
2024,01,11,13,10,-0.10
2024,01,11,13,11,-0.20
2024,01,11,13,12,-0.20
2024,01,11,13,13,-0.30
2024,01,11,13,14,-0.30
2024,01,11,13,15,-0.30
2024,01,11,13,16,-0.30
2024,01,11,13,17,-0.30
2024,01,11,13,18,-0.20
2024,01,11,13,19,-0.20
2024,01,11,13,20,-0.30
2024,01,11,13,21,-0.40
2024,01,11,13,22,-0.50
2024,01,11,13,23,-0.70
2024,01,11,13,24,-0.70
2024,01,11,13,25,-0.80
2024,01,11,13,26,-0.70
2024,01,11,13,27,-0.70
2024,01,11,13,28,-0.70
2024,01,11,13,29,-0.70
2024,01,11,13,30,-0.70
2024,01,11,13,31,-0.80
2024,01,11,13,32,-0.90
2024,01,11,13,33,-0.90
2024,01,11,13,34,-1.00
2024,01,11,13,35,-1.00
2024,01,11,13,36,-1.00
2024,01,11,13,37,-1.10
2024,01,11,13,38,-1.00
2024,01,11,13,39,-1.00
2024,01,11,13,40,-1.00
2024,01,11,13,41,-0.90
2024,01,11,13,42,-1.00
2024,01,11,13,43,-1.00
2024,01,11,13,44,-1.00
2024,01,11,13,45,-1.10
2024,01,11,13,46,-1.10
2024,01,11,13,47,-1.20
2024,01,11,13,48,-1.20
2024,01,11,13,49,-1.30
2024,01,11,13,50,-1.30
2024,01,11,13,51,-1.30
2024,01,11,13,52,-1.30
2024,01,11,13,53,-1.30
2024,01,11,13,54,-1.30
2024,01,11,13,55,-1.30
2024,01,11,13,56,-1.30
2024,01,11,13,57,-1.30
2024,01,11,13,58,-1.30
2024,01,11,13,59,-1.30
2024,01,11,14,00,-1.30
2024,01,11,14,01,-1.30
2024,01,11,14,02,-1.30
2024,01,11,14,03,-1.30
2024,01,11,14,04,-1.30
2024,01,11,14,05,-1.30
2024,01,11,14,06,-1.30
2024,01,11,14,07,-1.40
2024,01,11,14,08,-1.40
2024,01,11,14,09,-1.40
2024,01,11,14,10,-1.40
2024,01,11,14,11,-1.40
2024,01,11,14,12,-1.40
2024,01,11,14,13,-1.50
2024,01,11,14,14,-1.40
2024,01,11,14,15,-1.40
2024,01,11,14,16,-1.40
2024,01,11,14,17,-1.40
2024,01,11,14,18,-1.40
2024,01,11,14,19,-1.50
2024,01,11,14,20,-1.50
2024,01,11,14,21,-1.60
2024,01,11,14,22,-1.60
2024,01,11,14,23,-1.60
2024,01,11,14,24,-1.60
2024,01,11,14,25,-1.70
2024,01,11,14,26,-1.70
2024,01,11,14,27,-1.70
2024,01,11,14,28,-1.70
2024,01,11,14,29,-1.70
2024,01,11,14,30,-1.70
2024,01,11,14,31,-1.70
2024,01,11,14,32,-1.70
2024,01,11,14,33,-1.80
2024,01,11,14,34,-1.80
2024,01,11,14,35,-1.80
2024,01,11,14,36,-1.90
2024,01,11,14,37,-1.90
2024,01,11,14,38,-1.80
2024,01,11,14,39,-1.80
2024,01,11,14,40,-1.80
2024,01,11,14,41,-1.80
2024,01,11,14,42,-1.80
2024,01,11,14,43,-1.80
2024,01,11,14,44,-1.80
2024,01,11,14,45,-1.90
2024,01,11,14,46,-1.90
2024,01,11,14,47,-1.90
2024,01,11,14,48,-1.90
2024,01,11,14,49,-1.90
2024,01,11,14,50,-1.90
2024,01,11,14,51,-1.90
2024,01,11,14,52,-1.90
2024,01,11,14,53,-1.90
2024,01,11,14,54,-1.90
2024,01,11,14,55,-1.90
2024,01,11,14,56,-1.90
2024,01,11,14,57,-1.90
2024,01,11,14,58,-1.90
2024,01,11,14,59,-1.90
2024,01,11,15,00,-2.00
2024,01,11,15,01,-2.00
2024,01,11,15,02,-2.10
2024,01,11,15,03,-2.10
2024,01,11,15,04,-2.10
2024,01,11,15,05,-2.10
2024,01,11,15,06,-2.20
2024,01,11,15,07,-2.20
2024,01,11,15,08,-2.20
2024,01,11,15,09,-2.20
2024,01,11,15,10,-2.30
2024,01,11,15,11,-2.30
2024,01,11,15,12,-2.30
2024,01,11,15,13,-2.40
2024,01,11,15,14,-2.40
2024,01,11,15,15,-2.50
2024,01,11,15,16,-2.60
2024,01,11,15,17,-2.70
2024,01,11,15,18,-2.70
2024,01,11,15,19,-2.70
2024,01,11,15,20,-2.70
2024,01,11,15,21,-2.70
2024,01,11,15,22,-2.70
2024,01,11,15,23,-2.70
2024,01,11,15,24,-2.70
2024,01,11,15,25,-2.70
2024,01,11,15,26,-2.70
2024,01,11,15,27,-2.80
2024,01,11,15,28,-2.70
2024,01,11,15,29,-2.70
2024,01,11,15,30,-2.70
2024,01,11,15,31,-2.70
2024,01,11,15,32,-2.70
2024,01,11,15,33,-2.70
2024,01,11,15,34,-2.70
2024,01,11,15,35,-2.70
2024,01,11,15,36,-2.70
2024,01,11,15,37,-2.70
2024,01,11,15,38,-2.70
2024,01,11,15,39,-2.70
2024,01,11,15,40,-2.70
2024,01,11,15,41,-2.70
2024,01,11,15,42,-2.70
2024,01,11,15,43,-2.70
2024,01,11,15,44,-2.70
2024,01,11,15,45,-2.60
2024,01,11,15,46,-2.60
2024,01,11,15,47,-2.60
2024,01,11,15,48,-2.60
2024,01,11,15,49,-2.60
2024,01,11,15,50,-2.60
2024,01,11,15,51,-2.60
2024,01,11,15,52,-2.60
2024,01,11,15,53,-2.60
2024,01,11,15,54,-2.60
2024,01,11,15,55,-2.70
2024,01,11,15,56,-2.70
2024,01,11,15,57,-2.70
2024,01,11,15,58,-2.70
2024,01,11,15,59,-2.80
2024,01,11,16,00,-2.80
2024,01,11,16,01,-2.90
2024,01,11,16,02,-2.90
2024,01,11,16,03,-2.90
2024,01,11,16,04,-2.90
2024,01,11,16,05,-2.90
2024,01,11,16,06,-2.90
2024,01,11,16,07,-2.90
2024,01,11,16,08,-3.00
2024,01,11,16,09,-3.00
2024,01,11,16,10,-3.10
2024,01,11,16,11,-3.10
2024,01,11,16,12,-3.10
2024,01,11,16,13,-3.10
2024,01,11,16,14,-3.10
2024,01,11,16,15,-3.10
2024,01,11,16,16,-3.10
2024,01,11,16,17,-3.10
2024,01,11,16,18,-3.00
2024,01,11,16,19,-3.00
2024,01,11,16,20,-2.90
2024,01,11,16,21,-2.90
2024,01,11,16,22,-2.90
2024,01,11,16,23,-2.90
2024,01,11,16,24,-2.90
2024,01,11,16,25,-2.90
2024,01,11,16,26,-2.90
2024,01,11,16,27,-2.90
2024,01,11,16,28,-2.90
2024,01,11,16,29,-2.90
2024,01,11,16,30,-2.90
2024,01,11,16,31,-2.90
2024,01,11,16,32,-2.90
2024,01,11,16,33,-2.90
2024,01,11,16,34,-2.90
2024,01,11,16,35,-2.90
2024,01,11,16,36,-2.90
2024,01,11,16,37,-2.90
2024,01,11,16,38,-2.90
2024,01,11,16,39,-2.90
2024,01,11,16,40,-2.90
2024,01,11,16,41,-3.00
2024,01,11,16,42,-3.00
2024,01,11,16,43,-3.00
2024,01,11,16,44,-3.10
2024,01,11,16,45,-3.10
2024,01,11,16,46,-3.10
2024,01,11,16,47,-3.20
2024,01,11,16,48,-3.20
2024,01,11,16,49,-3.20
2024,01,11,16,50,-3.20
2024,01,11,16,51,-3.20
2024,01,11,16,52,-3.20
2024,01,11,16,53,-3.20
2024,01,11,16,54,-3.20
2024,01,11,16,55,-3.20
2024,01,11,16,56,-3.20
2024,01,11,16,57,-3.20
2024,01,11,16,58,-3.20
2024,01,11,16,59,-3.20
2024,01,11,17,00,-3.20
2024,01,11,17,01,-3.30
2024,01,11,17,02,-3.30
2024,01,11,17,03,-3.30
2024,01,11,17,04,-3.40
2024,01,11,17,05,-3.40
2024,01,11,17,06,-3.40
2024,01,11,17,07,-3.40
2024,01,11,17,08,-3.40
2024,01,11,17,09,-3.40
2024,01,11,17,10,-3.40
2024,01,11,17,11,-3.40
2024,01,11,17,12,-3.40
2024,01,11,17,13,-3.30
2024,01,11,17,14,-3.30
2024,01,11,17,15,-3.20
2024,01,11,17,16,-3.20
2024,01,11,17,17,-3.20
2024,01,11,17,18,-3.20
2024,01,11,17,19,-3.20
2024,01,11,17,20,-3.30
2024,01,11,17,21,-3.30
2024,01,11,17,22,-3.30
2024,01,11,17,23,-3.30
2024,01,11,17,24,-3.40
2024,01,11,17,25,-3.40
2024,01,11,17,26,-3.40
2024,01,11,17,27,-3.50
2024,01,11,17,28,-3.50
2024,01,11,17,29,-3.50
2024,01,11,17,30,-3.50
2024,01,11,17,31,-3.50
2024,01,11,17,32,-3.60
2024,01,11,17,33,-3.60
2024,01,11,17,34,-3.60
2024,01,11,17,35,-3.60
2024,01,11,17,36,-3.60
2024,01,11,17,37,-3.60
2024,01,11,17,38,-3.50
2024,01,11,17,39,-3.50
2024,01,11,17,40,-3.50
2024,01,11,17,41,-3.50
2024,01,11,17,42,-3.60
2024,01,11,17,43,-3.60
2024,01,11,17,44,-3.60
2024,01,11,17,45,-3.60
2024,01,11,17,46,-3.60
2024,01,11,17,47,-3.60
2024,01,11,17,48,-3.60
2024,01,11,17,49,-3.60
2024,01,11,17,50,-3.60
2024,01,11,17,51,-3.60
2024,01,11,17,52,-3.70
2024,01,11,17,53,-3.70
2024,01,11,17,54,-3.80
2024,01,11,17,55,-3.80
2024,01,11,17,56,-3.80
2024,01,11,17,57,-3.80
2024,01,11,17,58,-3.80
2024,01,11,17,59,-3.80
2024,01,11,18,00,-3.90
2024,01,11,18,01,-3.90
2024,01,11,18,02,-3.90
2024,01,11,18,03,-3.90
2024,01,11,18,04,-3.90
2024,01,11,18,05,-4.00
2024,01,11,18,06,-4.00
2024,01,11,18,07,-4.00
2024,01,11,18,08,-4.00
2024,01,11,18,09,-4.00
2024,01,11,18,10,-3.90
2024,01,11,18,11,-3.90
2024,01,11,18,12,-3.90
2024,01,11,18,13,-3.90
2024,01,11,18,14,-3.90
2024,01,11,18,15,-3.90
2024,01,11,18,16,-3.90
2024,01,11,18,17,-3.90
2024,01,11,18,18,-3.90
2024,01,11,18,19,-3.90
2024,01,11,18,20,-3.90
2024,01,11,18,21,-4.00
2024,01,11,18,22,-4.00
2024,01,11,18,23,-4.00
2024,01,11,18,24,-4.00
2024,01,11,18,25,-4.00
2024,01,11,18,26,-4.00
2024,01,11,18,27,-4.00
2024,01,11,18,28,-4.10
2024,01,11,18,29,-4.10
2024,01,11,18,30,-4.00
2024,01,11,18,31,-4.10
2024,01,11,18,32,-4.10
2024,01,11,18,33,-4.10
2024,01,11,18,34,-4.10
2024,01,11,18,35,-4.10
2024,01,11,18,36,-4.10
2024,01,11,18,37,-4.10
2024,01,11,18,38,-4.10
2024,01,11,18,39,-4.10
2024,01,11,18,40,-4.10
2024,01,11,18,41,-4.10
2024,01,11,18,42,-4.00
2024,01,11,18,43,-4.00
2024,01,11,18,44,-4.00
2024,01,11,18,45,-3.90
2024,01,11,18,46,-3.90
2024,01,11,18,47,-4.00
2024,01,11,18,48,-4.00
2024,01,11,18,49,-4.10
2024,01,11,18,50,-4.10
2024,01,11,18,51,-4.10
2024,01,11,18,52,-4.10
2024,01,11,18,53,-4.20
2024,01,11,18,54,-4.20
2024,01,11,18,55,-4.20
2024,01,11,18,56,-4.30
2024,01,11,18,57,-4.30
2024,01,11,18,58,-4.30
2024,01,11,18,59,-4.30
2024,01,11,19,00,-4.30
2024,01,11,19,01,-4.30
2024,01,11,19,02,-4.30
2024,01,11,19,03,-4.30
2024,01,11,19,04,-4.40
2024,01,11,19,05,-4.40
2024,01,11,19,06,-4.40
2024,01,11,19,07,-4.40
2024,01,11,19,08,-4.40
2024,01,11,19,09,-4.40
2024,01,11,19,10,-4.40
2024,01,11,19,11,-4.50
2024,01,11,19,12,-4.50
2024,01,11,19,13,-4.60
2024,01,11,19,14,-4.60
2024,01,11,19,15,-4.60
2024,01,11,19,16,-4.60
2024,01,11,19,17,-4.60
2024,01,11,19,18,-4.60
2024,01,11,19,19,-4.60
2024,01,11,19,20,-4.70
2024,01,11,19,21,-4.70
2024,01,11,19,22,-4.70
2024,01,11,19,23,-4.70
2024,01,11,19,24,-4.70
2024,01,11,19,25,-4.70
2024,01,11,19,26,-4.70
2024,01,11,19,27,-4.70
2024,01,11,19,28,-4.70
2024,01,11,19,29,-4.70
2024,01,11,19,30,-4.70
2024,01,11,19,31,-4.70
2024,01,11,19,32,-4.70
2024,01,11,19,33,-4.80
2024,01,11,19,34,-4.80
2024,01,11,19,35,-4.80
2024,01,11,19,36,-4.80
2024,01,11,19,37,-4.80
2024,01,11,19,38,-4.80
2024,01,11,19,39,-4.80
2024,01,11,19,40,-4.80
2024,01,11,19,41,-4.80
2024,01,11,19,42,-4.90
2024,01,11,19,43,-4.90
2024,01,11,19,44,-4.90
2024,01,11,19,45,-4.90
2024,01,11,19,46,-4.90
2024,01,11,19,47,-5.00
2024,01,11,19,48,-5.00
2024,01,11,19,49,-5.00
2024,01,11,19,50,-5.00
2024,01,11,19,51,-5.00
2024,01,11,19,52,-5.10
2024,01,11,19,53,-5.10
2024,01,11,19,54,-5.10
2024,01,11,19,55,-5.10
2024,01,11,19,56,-5.10
2024,01,11,19,57,-5.10
2024,01,11,19,58,-5.20
2024,01,11,19,59,-5.20
2024,01,11,20,00,-5.20
2024,01,11,20,01,-5.20
2024,01,11,20,02,-5.20
2024,01,11,20,03,-5.30
2024,01,11,20,04,-5.30
2024,01,11,20,05,-5.30
2024,01,11,20,06,-5.30
2024,01,11,20,07,-5.30
2024,01,11,20,08,-5.30
2024,01,11,20,09,-5.30
2024,01,11,20,10,-5.30
2024,01,11,20,11,-5.30
2024,01,11,20,12,-5.40
2024,01,11,20,13,-5.40
2024,01,11,20,14,-5.50
2024,01,11,20,15,-5.50
2024,01,11,20,16,-5.60
2024,01,11,20,17,-5.60
2024,01,11,20,18,-5.60
2024,01,11,20,19,-5.60
2024,01,11,20,20,-5.60
2024,01,11,20,21,-5.70
2024,01,11,20,22,-5.70
2024,01,11,20,23,-5.70
2024,01,11,20,24,-5.70
2024,01,11,20,25,-5.70
2024,01,11,20,26,-5.70
2024,01,11,20,27,-5.70
2024,01,11,20,28,-5.70
2024,01,11,20,29,-5.70
2024,01,11,20,30,-5.70
2024,01,11,20,31,-5.70
2024,01,11,20,32,-5.70
2024,01,11,20,33,-5.70
2024,01,11,20,34,-5.70
2024,01,11,20,35,-5.80
2024,01,11,20,36,-5.80
2024,01,11,20,37,-5.80
2024,01,11,20,38,-5.80
2024,01,11,20,39,-5.90
2024,01,11,20,40,-5.90
2024,01,11,20,41,-5.90
2024,01,11,20,42,-5.80
2024,01,11,20,43,-5.80
2024,01,11,20,44,-5.80
2024,01,11,20,45,-5.80
2024,01,11,20,46,-5.80
2024,01,11,20,47,-5.80
2024,01,11,20,48,-5.70
2024,01,11,20,49,-5.70
2024,01,11,20,50,-5.70
2024,01,11,20,51,-5.60
2024,01,11,20,52,-5.70
2024,01,11,20,53,-5.70
2024,01,11,20,54,-5.70
2024,01,11,20,55,-5.70
2024,01,11,20,56,-5.80
2024,01,11,20,57,-5.80
2024,01,11,20,58,-5.80
2024,01,11,20,59,-5.80
2024,01,11,21,00,-5.90
2024,01,11,21,01,-5.90
2024,01,11,21,02,-5.90
2024,01,11,21,03,-5.90
2024,01,11,21,04,-5.90
2024,01,11,21,05,-5.90
2024,01,11,21,06,-5.90
2024,01,11,21,07,-5.90
2024,01,11,21,08,-5.90
2024,01,11,21,09,-5.90
2024,01,11,21,10,-5.90
2024,01,11,21,11,-5.90
2024,01,11,21,12,-5.90
2024,01,11,21,13,-6.00
2024,01,11,21,14,-6.00
2024,01,11,21,15,-6.00
2024,01,11,21,16,-6.00
2024,01,11,21,17,-6.00
2024,01,11,21,18,-6.10
2024,01,11,21,19,-6.10
2024,01,11,21,20,-6.10
2024,01,11,21,21,-6.10
2024,01,11,21,22,-6.10
2024,01,11,21,23,-6.00
2024,01,11,21,24,-6.00
2024,01,11,21,25,-6.00
2024,01,11,21,26,-6.00
2024,01,11,21,27,-6.00
2024,01,11,21,28,-6.00
2024,01,11,21,29,-6.10
2024,01,11,21,30,-6.10
2024,01,11,21,31,-6.10
2024,01,11,21,32,-6.10
2024,01,11,21,33,-6.10
2024,01,11,21,34,-6.20
2024,01,11,21,35,-6.20